Regional Weather Roundup
Issued by NWS

Home | Current Version | Previous Version | Graphics & Text | Print | Product List | Glossary On
Versions: 1 2 3 4 5 6 7 8 9 10 11 12 13 14 15 16 17 18 19 20 21 22 23 24 25 26 27 28 29 30 31 32 33 34 35 36 37 38 39 40 41 42 43 44 45 46 47 48 49 50
000
ASUS43 KMPX 261910
RWRMN
WEATHER ROUNDUP FOR MINNESOTA
NATIONAL WEATHER SERVICE TWIN CITIES/CHANHASSEN MN
100 PM CST FRI DEC 26 2014


NOTE: "FAIR" INDICATES FEW OR NO CLOUDS BELOW 12,000 FEET WITH NO
SIGNIFICANT WEATHER AND/OR OBSTRUCTIONS TO VISIBILITY. N/A MEANS
CURRENT SKY AND/OR WEATHER CONDITIONS ARE NOT AVAILABLE.

MNZ060>063-068>070-262000-
   Twin Cities Metro

CITY           SKY/WX    TMP DP  RH WIND       PRES   REMARKS
TWIN CITIES    CLOUDY    32  26  78 N12       30.01F WCI  23
ST PAUL        CLOUDY    32  27  81 N10       30.02F WCI  24
CRYSTAL        CLOUDY    32  26  78 N10       30.02R WCI  24
BLAINE         CLOUDY    32  30  93 N9        30.02S WCI  24
LAKEVILLE      CLOUDY    30  27  86 N10       29.99F WCI  21
EDEN PRAIRIE   CLOUDY    32  26  78 N10       30.00F WCI  24
SOUTH ST PAUL  CLOUDY    32  28  85 N8        30.01F WCI  25
LAKE ELMO      CLOUDY    32  30  93 N9        30.01S WCI  24
$$
MNZ001>005-007-008-013>017-022>024-027-028-262000-
   Northwest Minnesota

CITY           SKY/WX    TMP DP  RH WIND       PRES   REMARKS
BEMIDJI        CLOUDY    24  16  71 N9        30.09S WCI  14
HALLOCK        FLURRIES  16  10  79 NW10      30.19S WCI   3
ROSEAU         FLURRIES  23  16  74 W7        30.13F WCI  15
WARROAD        CLOUDY    21  16  79 CALM      30.13F
THIEF RVR FALL CLOUDY    21  18  86 NW13      30.14S WCI   9
CROOKSTON      CLOUDY    19  18  93 NW15      30.18S WCI   5
FOSSTON        LGT SNOW  21  18  86 NW10      30.12S WCI  10
DETROIT LAKES  CLOUDY    25  21  86 N10G17    30.10F WCI  15
MOORHEAD       DRIZZLE   25  23  93 N16       30.15F WCI  12
PARK RAPIDS    CLOUDY    26  18  71 NW9       30.06F WCI  17
MAHNOMEN       FLURRIES  23  19  86 N13       30.11F WCI  11
$$
MNZ006-009>011-018-025>026-262000-
   North Central Minnesota

CITY           SKY/WX    TMP DP  RH WIND       PRES   REMARKS
BAUDETTE       CLOUDY    21  14  74 NW13      30.11S WCI   9
FLAG ISLAND    CLOUDY    18  12  79 NW9       30.12S WCI   6
INTL FALLS     CLOUDY    24  18  77 W9        30.07F WCI  14
WASKISH        CLOUDY    23  18  80 CALM      30.10F
BIG FORK       CLOUDY    25  19  80 NW5       30.07S WCI  19
LONGVILLE      CLOUDY    25  19  80 N6        30.07F WCI  18
GRAND RAPIDS   CLOUDY    25  19  80 N10       30.04F WCI  15
CRANE LAKE     CLOUDY    25  21  86 CALM      30.07F
ORR            CLOUDY    25  18  74 NW7       30.03S WCI  17
COOK           CLOUDY    27  21  80 NW6       30.04F WCI  20
WALKER         CLOUDY    24  16  74 N8        30.07F WCI  14
$$
MNZ012-019>021-037-262000-
   Northeast Minnesota

CITY           SKY/WX    TMP DP  RH WIND       PRES   REMARKS
DULUTH         FLURRIES  30  21  69 N8        30.00S WCI  22
ELY            CLOUDY    28  21  74 NW3       30.01F
HIBBING        CLOUDY    27  21  78 NW9       30.04S WCI  18
EVELETH        PTSUNNY   28  23  80 NW9       30.03S WCI  20
DULUTH HARBOR  CLOUDY    32  27  80 CALM      30.05F
TWO HARBORS    CLOUDY    34  25  69 N5        30.00S WCI  30
SILVER BAY     PTSUNNY   34  23  64 N5        30.00F WCI  30
GRAND MARAIS     N/A     34  24  67 N5        30.02F WCI  30
G MARAIS ARPRT CLOUDY    27  19  74 NW5       29.97F WCI  21
$$
MNZ029>031-032-039>041-046>048-054>057-064-262000-
   West Central Minnesota

CITY           SKY/WX    TMP DP  RH WIND       PRES   REMARKS
FERGUS FALLS   CLOUDY    25  19  80 N9G20     30.13F WCI  15
WHEATON        CLOUDY    23  19  86 NW15      30.15S WCI  10
MORRIS         FAIR      27  23  86 N12       30.09S WCI  16
ALEXANDRIA     CLOUDY    26  20  77 N12       30.08R WCI  16
ELBOW LAKE     CLOUDY    25  19  80 N12G18    30.09S WCI  14
WADENA         CLOUDY    25  19  80 N13       30.06S WCI  13
GLENWOOD       CLOUDY    27  21  80 N8        30.07S WCI  18
APPLETON       CLOUDY    28  25  86 NW14      30.10S WCI  17
BENSON         CLOUDY    28  25  86 N9        30.09S WCI  20
ORTONVILLE     CLOUDY    25  19  80 N14       30.11F WCI  13
MADISON        CLOUDY    28  27  93 N15       30.10F WCI  17
WILLMAR        CLOUDY    30  23  74 N9        30.07F WCI  22
$$
MNZ033>034-036-042>043-049>051-058-059-262000-
   Central Minnesota

CITY           SKY/WX    TMP DP  RH WIND       PRES   REMARKS
ST CLOUD       CLOUDY    32  23  69 N10       30.05R WCI  24
SAUK CENTRE    CLOUDY    27  21  77 N9        30.06S WCI  18
PAYNESVILLE    CLOUDY    26  21  82 NW9       30.06S WCI  17
AITKIN         CLOUDY    30  21  69 NW8       30.03S WCI  23
PINE RIVER     CLOUDY    27  19  74 NW9       30.09S WCI  17
BRAINERD       CLOUDY    28  19  69 N10       30.06S WCI  19
STAPLES        CLOUDY    27  19  74 N10       30.06S WCI  17
LONG PRAIRIE   CLOUDY    27  21  80 NW8       30.06S WCI  18
LITTLE FALLS   CLOUDY    28  21  74 NW7       30.06S WCI  21
LITCHFIELD     CLOUDY    30  27  86 N10       30.05S WCI  21
BUFFALO        CLOUDY    30  26  83 N9        30.04S WCI  22
MAPLE LAKE     CLOUDY    31  28  88 N9        30.05S WCI  23
$$
MNZ037-044-045-052-053-262000-
   East Central Minnesota

CITY           SKY/WX    TMP DP  RH WIND       PRES   REMARKS
PRINCETON      CLOUDY    30  27  86 NW8       30.05R WCI  23
MORA           CLOUDY    32  25  74 N7        30.05S WCI  26
CAMBRIDGE      PTSUNNY   32  25  74 N5        30.02R WCI  27
RUSH CITY      CLOUDY    31  26  83 N8        30.03S WCI  23
MOOSE LAKE     CLOUDY    30  23  74 N6        30.01F WCI  24
HINCKLEY       CLOUDY    32  27  80 N9        30.03R WCI  24
CLOQUET        CLOUDY    28  21  74 N8        30.01F WCI  20
MCGREGOR       CLOUDY    30  23  74 N9        30.04S WCI  22
$$
MNZ071>073-080-081-089-090-097-098-262000-
   Southwest Minnesota

CITY           SKY/WX    TMP DP  RH WIND       PRES   REMARKS
MONTEVIDEO     CLOUDY    28  25  86 N12       30.09S WCI  18
GRANITE FALLS  CLOUDY    28  23  81 N10       30.09S WCI  19
CANBY          CLOUDY    26  24  91 NW12      30.11S WCI  16
MARSHALL       CLOUDY    27  21  80 N16       30.07R WCI  14
REDWOOD FALLS  CLOUDY    30  25  81 N12       30.05F WCI  20
OLIVIA         CLOUDY    30  27  86 N13       30.04F WCI  20
PIPESTONE      CLOUDY    25  23  93 NE14      30.03F WCI  13
WINDOM         CLOUDY    28  27  93 N16       30.02R WCI  17
WORTHINGTON    CLOUDY    27 -20  12 N17       30.02R WCI  14
JACKSON        CLOUDY    30  28  93 N13G18    30.00S WCI  20
TRACY          CLOUDY    28  27  94 N16G22    30.04S WCI  16
SLAYTON        CLOUDY    26  25  96 N16       30.03S WCI  14
$$
MNZ065>067-074>077-082>085-091>093-262000-
   South Central Minnesota

CITY           SKY/WX    TMP DP  RH WIND       PRES   REMARKS
MANKATO        CLOUDY    32  25  74 N15       29.99S WCI  22
NEW ULM        CLOUDY    30  27  86 N9G16     30.01F WCI  22
FAIRMONT       CLOUDY    30  27  86 N15       30.00R WCI  19
GLENCOE        CLOUDY    32  29  90 N12       30.02F WCI  23
FARIBAULT      CLOUDY    32  28  86 N8        29.98F WCI  25
OWATONNA       CLOUDY    32  28  86 N13       29.97S WCI  22
WASECA         CLOUDY    32  28  86 VRB13     29.99F WCI  22
ALBERT LEA     CLOUDY    32  32 100 N12       29.96R FOG     WCI  23
$$
MNZ078>079-086>088-094>096-262000-
   Southeast Minnesota

CITY           SKY/WX    TMP DP  RH WIND       PRES   REMARKS
ROCHESTER      CLOUDY    33  30  88 N12       29.94S FOG     WCI  24
RED WING       CLOUDY    34  28  80 N6        29.97F WCI  29
STANTON        CLOUDY    33  30  88 N10       29.97F WCI  25
DODGE CENTER   CLOUDY    34  32  93 N14       29.94S FOG     WCI  24
WINONA         CLOUDY    37  32  81 NW10      29.95F
AUSTIN         CLOUDY    32  30  93 N13       29.94S FOG     WCI  22
PRESTON        CLOUDY    32  30  94 N12       29.93S FOG     WCI  23
$$
ABBREVIATIONS USED IN REMARKS
   TC - TEMPERATURES IN CELSIUS
  WCI - WIND CHILL INDEX
   HX - HEAT INDEX
  VSB - VISIBILITY
$$


USA.gov is the U.S. government's official web portal to all federal, state and local government web resources and services.